AC2JK-WX Weather Reports


Display with metric or nautical units.
time (UTC)temp
F
wind
direction
speed
MPH
gust
MPH
rain 1hr
in
rain 24hr
in
rain mn
in
humidity
%
barometer
mb
20260903233714 73 342 3.0 3.0 1.54 0.00 1.54 96 1014.0
20260903233209 73 220 0.0 0.0 1.48 0.00 1.48 95 1014.0
20260903232709 73 161 0.0 4.0 1.36 0.00 1.36 95 1014.0
20260903232209 74 162 0.0 3.0 1.23 0.00 1.23 95 1014.0
20260903231709 74 234 0.0 0.0 1.07 0.00 1.07 94 1014.0
20260903231210 74 170 2.0 2.0 1.01 0.00 1.01 94 1014.0
20260903230710 75 5 0.0 4.0 0.80 0.00 0.80 93 1014.0
20260903230210 75 193 2.0 5.0 0.50 0.00 0.50 92 1014.0
20260903225709 76 284 0.0 3.0 0.23 0.00 0.23 90 1014.0
20260903225209 76 187 2.0 2.0 0.08 0.00 0.08 89 1014.0
20260903224709 77 143 1.0 4.0 0.01 0.00 0.01 87 1014.0
20260903224209 77 143 1.0 1.0 0.00 0.00 0.00 86 1014.0
20260903223710 77 219 0.0 0.0 0.00 0.00 0.00 85 1014.0
20260903223209 77 169 3.0 3.0 0.00 0.00 0.00 85 1014.0
20260903222709 77 330 2.0 2.0 0.00 0.00 0.00 85 1014.0
20260903222213 78 245 0.0 1.0 0.00 0.00 0.00 85 1014.0
20260903221709 78 122 2.0 2.0 0.00 0.00 0.00 85 1014.0
20260903221209 78 171 3.0 3.0 0.00 0.00 0.00 84 1014.0
20260903220711 78 149 4.0 6.0 0.00 0.00 0.00 84 1013.0
20260903220209 78 130 4.0 4.0 0.00 0.00 0.00 83 1013.0
20260903215709 78 196 3.0 7.0 0.00 0.00 0.00 83 1013.0
20260903215209 79 217 0.0 4.0 0.00 0.00 0.00 82 1013.0
20260903214710 79 231 1.0 1.0 0.00 0.00 0.00 82 1013.0
20260903214209 79 141 4.0 4.0 0.00 0.00 0.00 81 1013.0
20260903213710 79 59 0.0 3.0 0.00 0.00 0.00 82 1013.0
20260903213210 79 209 1.0 3.0 0.00 0.00 0.00 82 1013.0
20260903212710 79 146 2.0 3.0 0.00 0.00 0.00 81 1013.0
20260903212209 79 145 2.0 2.0 0.00 0.00 0.00 81 1013.0
20260903211710 79 198 0.0 2.0 0.00 0.00 0.00 81 1013.0
20260903211209 79 230 3.0 3.0 0.00 0.00 0.00 81 1013.0
20260903210709 79 189 3.0 6.0 0.00 0.00 0.00 81 1013.0
20260903210210 79 212 1.0 4.0 0.00 0.00 0.00 81 1014.0
20260903205709 79 162 4.0 4.0 0.00 0.00 0.00 81 1014.0
20260903205209 79 227 2.0 4.0 0.00 0.00 0.00 81 1013.0
20260903204710 79 183 0.0 1.0 0.00 0.00 0.00 82 1013.0
20260903204210 79 96 2.0 4.0 0.00 0.00 0.00 81 1014.0
20260903203709 79 170 0.0 2.0 0.00 0.00 0.00 81 1014.0
20260903203209 79 111 3.0 7.0 0.00 0.00 0.00 80 1014.0
20260903202709 79 177 2.0 3.0 0.00 0.00 0.00 80 1014.0
20260903202210 79 180 3.0 4.0 0.00 0.00 0.00 81 1014.0
20260903201709 79 144 5.0 7.0 0.00 0.00 0.00 80 1014.0
20260903201210 79 51 2.0 6.0 0.00 0.00 0.00 80 1014.0
20260903200709 80 125 1.0 4.0 0.00 0.00 0.00 78 1014.0
20260903200209 80 156 0.0 5.0 0.00 0.00 0.00 78 1014.0
20260903195710 80 167 2.0 4.0 0.00 0.00 0.00 77 1014.0
20260903195210 80 162 0.0 2.0 0.00 0.00 0.00 77 1014.0
20260903194709 81 143 4.0 7.0 0.00 0.00 0.00 76 1014.0
20260903194209 81 121 0.0 3.0 0.00 0.00 0.00 77 1014.0
20260903193709 81 202 1.0 4.0 0.00 0.00 0.00 76 1014.0
20260903193209 81 164 2.0 5.0 0.00 0.00 0.00 75 1014.0
20260903192709 82 192 3.0 3.0 0.00 0.00 0.00 74 1014.0
20260903192209 82 243 1.0 5.0 0.00 0.00 0.00 74 1014.0
20260903191710 83 224 2.0 6.0 0.00 0.00 0.00 73 1014.0
20260903191210 83 142 2.0 6.0 0.00 0.00 0.00 70 1014.0
20260903190710 83 99 0.0 0.0 0.00 0.00 0.00 72 1014.0
20260903190210 83 119 2.0 3.0 0.00 0.00 0.00 70 1014.0
20260903185709 83 138 4.0 4.0 0.00 0.00 0.00 71 1014.0
20260903185210 83 249 2.0 6.0 0.00 0.00 0.00 71 1014.0
20260903184710 83 318 2.0 6.0 0.00 0.00 0.00 72 1014.0
20260903184212 83 276 2.0 6.0 0.00 0.00 0.00 72 1014.0
20260903183710 83 269 5.0 7.0 0.00 0.00 0.00 72 1014.0
20260903183210 82 168 3.0 9.0 0.00 0.00 0.00 73 1014.0
20260903182710 82 196 1.0 6.0 0.00 0.00 0.00 74 1014.0
20260903182210 82 176 4.0 9.0 0.00 0.00 0.00 74 1014.0
20260903181709 82 188 5.0 7.0 0.00 0.00 0.00 73 1015.0
20260903181210 82 191 3.0 6.0 0.00 0.00 0.00 74 1014.0
20260903180709 82 300 2.0 3.0 0.00 0.00 0.00 72 1014.0
20260903180210 82 276 1.0 2.0 0.00 0.00 0.00 75 1014.0
20260903175710 81 198 2.0 6.0 0.00 0.00 0.00 76 1015.0
20260903175210 81 88 4.0 5.0 0.00 0.00 0.00 76 1015.0
20260903174709 81 135 3.0 5.0 0.00 0.00 0.00 76 1015.0
20260903174209 81 141 4.0 4.0 0.00 0.00 0.00 78 1015.0
20260903173709 80 185 2.0 6.0 0.00 0.00 0.00 79 1015.0
20260903173209 80 205 3.0 8.0 0.00 0.00 0.00 79 1015.0
20260903172710 80 134 4.0 6.0 0.00 0.00 0.00 79 1015.0
20260903172210 80 264 3.0 5.0 0.00 0.00 0.00 80 1015.0
20260903171710 79 206 4.0 5.0 0.00 0.00 0.00 80 1015.0
20260903171211 79 37 3.0 4.0 0.00 0.00 0.00 81 1015.0
20260903170711 78 226 2.0 3.0 0.00 0.00 0.00 83 1015.0
20260903170210 78 290 3.0 4.0 0.00 0.00 0.00 83 1015.0
20260903165711 78 249 4.0 5.0 0.00 0.00 0.00 83 1015.0
20260903165210 77 290 6.0 6.0 0.00 0.00 0.00 83 1015.0
20260903164709 77 278 7.0 7.0 0.00 0.00 0.00 83 1015.0
20260903164209 78 174 3.0 7.0 0.00 0.00 0.00 82 1015.0
20260903163709 78 73 1.0 7.0 0.00 0.00 0.00 82 1015.0
20260903163209 78 210 3.0 6.0 0.00 0.00 0.00 83 1015.0
20260903162709 77 47 1.0 6.0 0.00 0.00 0.00 83 1015.0
20260903162210 78 248 4.0 6.0 0.00 0.00 0.00 82 1015.0
20260903161710 78 164 5.0 5.0 0.00 0.00 0.00 83 1015.0
20260903161211 78 139 2.0 5.0 0.00 0.00 0.00 83 1015.0
20260903160710 78 216 2.0 5.0 0.00 0.00 0.00 83 1015.0
20260903160212 77 106 2.0 3.0 0.00 0.00 0.00 84 1015.0
20260903155709 77 171 2.0 5.0 0.00 0.00 0.00 83 1015.0
20260903155210 77 319 3.0 5.0 0.00 0.00 0.00 83 1015.0
20260903154709 77 120 0.0 4.0 0.00 0.00 0.00 83 1015.0
20260903154209 77 134 2.0 4.0 0.00 0.00 0.00 83 1015.0
20260903153710 77 179 4.0 5.0 0.00 0.00 0.00 83 1015.0
20260903153210 77 168 0.0 4.0 0.00 0.00 0.00 83 1015.0
20260903152711 77 34 1.0 2.0 0.00 0.00 0.00 82 1015.0
20260903152210 77 276 4.0 6.0 0.00 0.00 0.00 82 1015.0
20260903151709 77 267 4.0 6.0 0.00 0.00 0.00 82 1015.0
20260903151210 77 233 2.0 3.0 0.00 0.00 0.00 83 1015.0
20260903150709 77 141 2.0 5.0 0.00 0.00 0.00 83 1015.0
20260903150209 77 314 2.0 6.0 0.00 0.00 0.00 82 1015.0
20260903145711 77 161 2.0 3.0 0.00 0.00 0.00 83 1015.0
20260903145209 76 192 0.0 3.0 0.00 0.00 0.00 84 1015.0
20260903144709 76 225 1.0 3.0 0.00 0.00 0.00 84 1015.0
20260903144216 76 147 2.0 4.0 0.00 0.00 0.00 85 1015.0
20260903143710 76 147 4.0 6.0 0.00 0.00 0.00 85 1015.0
20260903143210 76 208 2.0 3.0 0.00 0.00 0.00 85 1015.0
20260903142711 76 198 2.0 4.0 0.00 0.00 0.00 85 1015.0
20260903142209 76 57 4.0 4.0 0.00 0.00 0.00 85 1015.0
20260903141709 75 68 1.0 4.0 0.00 0.00 0.00 85 1015.0
20260903141210 76 208 4.0 4.0 0.00 0.00 0.00 85 1015.0
20260903140711 75 117 3.0 3.0 0.00 0.00 0.00 85 1015.0
20260903140211 75 165 2.0 5.0 0.00 0.00 0.00 85 1015.0
20260903135710 75 152 3.0 5.0 0.00 0.00 0.00 87 1015.0
20260903135209 75 358 0.0 5.0 0.00 0.00 0.00 87 1015.0
20260903134709 75 234 2.0 3.0 0.00 0.00 0.00 87 1015.0
20260903134209 75 216 0.0 4.0 0.00 0.00 0.00 87 1015.0
20260903133710 75 171 4.0 4.0 0.00 0.00 0.00 87 1015.0
20260903133209 75 222 0.0 2.0 0.00 0.00 0.00 87 1015.0
20260903132710 75 103 1.0 1.0 0.00 0.00 0.00 88 1015.0
20260903132210 75 222 1.0 3.0 0.00 0.00 0.00 88 1015.0
20260903131709 75 165 0.0 2.0 0.00 0.00 0.00 89 1015.0
20260903131210 74 307 0.0 4.0 0.00 0.00 0.00 89 1015.0
20260903130709 74 167 3.0 4.0 0.00 0.00 0.00 89 1016.0
20260903130213 74 234 4.0 4.0 0.00 0.00 0.00 90 1016.0
20260903125709 73 22 2.0 2.0 0.00 0.00 0.00 91 1016.0
20260903125209 73 201 2.0 5.0 0.00 0.00 0.00 91 1016.0
20260903124710 73 145 0.0 2.0 0.00 0.00 0.00 92 1016.0
20260903124209 73 132 1.0 3.0 0.00 0.00 0.00 92 1016.0
20260903123709 72 317 0.0 3.0 0.00 0.00 0.00 92 1016.0
20260903123214 72 207 0.0 0.0 0.00 0.00 0.00 93 1016.0
20260903122709 72 223 0.0 0.0 0.00 0.00 0.00 93 1016.0
20260903122209 72 20 0.0 3.0 0.00 0.00 0.00 94 1016.0
20260903121713 72 100 3.0 3.0 0.00 0.00 0.00 94 1016.0
20260903121209 71 204 0.0 2.0 0.00 0.00 0.00 94 1016.0
20260903120710 71 175 0.0 0.0 0.00 0.00 0.00 94 1016.0
20260903115709 71 113 2.0 3.0 0.00 0.00 0.00 95 1016.0
20260903115209 71 246 0.0 4.0 0.00 0.00 0.00 95 1016.0
20260903114710 71 96 0.0 0.0 0.00 0.00 0.00 95 1016.0
20260903114210 71 173 0.0 3.0 0.00 0.00 0.00 95 1015.0
20260903113710 70 132 0.0 0.0 0.00 0.00 0.00 95 1015.0
20260903113210 71 167 0.0 0.0 0.00 0.00 0.00 95 1015.0
20260903112710 70 181 0.0 0.0 0.00 0.00 0.00 95 1015.0
20260903112210 70 164 0.0 0.0 0.00 0.00 0.00 95 1015.0
20260903111709 70 236 1.0 1.0 0.00 0.00 0.00 96 1015.0
20260903111210 70 186 0.0 0.0 0.00 0.00 0.00 96 1015.0
20260903110709 70 129 0.0 0.0 0.00 0.00 0.00 96 1015.0
20260903110209 70 178 1.0 3.0 0.00 0.00 0.00 96 1015.0
20260903105712 70 173 0.0 3.0 0.00 0.00 0.00 96 1015.0
20260903105209 70 150 0.0 2.0 0.00 0.00 0.00 95 1015.0
20260903104709 70 142 0.0 0.0 0.00 0.00 0.00 95 1015.0
20260903104209 70 254 0.0 0.0 0.00 0.00 0.00 95 1015.0
20260903103709 70 170 0.0 0.0 0.00 0.00 0.00 95 1014.0
20260903103209 70 177 0.0 0.0 0.00 0.00 0.00 95 1014.0
20260903102709 70 154 0.0 0.0 0.00 0.00 0.00 95 1014.0
20260903102209 70 190 0.0 0.0 0.00 0.00 0.00 95 1014.0
20260903101710 70 146 0.0 0.0 0.00 0.00 0.00 95 1015.0
20260903101209 70 162 0.0 0.0 0.00 0.00 0.00 95 1014.0
20260903100709 70 162 0.0 0.0 0.00 0.00 0.00 95 1014.0
20260903100209 70 173 0.0 0.0 0.00 0.00 0.00 95 1014.0
20260903095709 70 121 0.0 0.0 0.00 0.00 0.00 94 1014.0
20260903095211 70 179 0.0 0.0 0.00 0.00 0.00 94 1014.0
20260903094712 70 234 0.0 0.0 0.00 0.00 0.00 94 1014.0
20260903094210 70 351 0.0 0.0 0.00 0.00 0.00 94 1014.0
20260903093710 70 124 0.0 0.0 0.00 0.00 0.00 94 1014.0
20260903093210 70 128 0.0 0.0 0.00 0.00 0.00 94 1014.0
20260903092709 70 158 0.0 0.0 0.00 0.00 0.00 94 1014.0
20260903092210 70 110 0.0 0.0 0.00 0.00 0.00 94 1014.0
20260903091709 70 174 0.0 0.0 0.00 0.00 0.00 94 1014.0
20260903091209 70 113 0.0 0.0 0.00 0.00 0.00 93 1014.0
20260903090709 70 114 0.0 0.0 0.00 0.00 0.00 93 1014.0
20260903090211 70 2 0.0 0.0 0.00 0.00 0.00 93 1014.0
20260903085709 70 22 0.0 0.0 0.00 0.00 0.00 93 1014.0
20260903085209 71 138 0.0 0.0 0.00 0.00 0.00 92 1014.0
20260903084709 71 167 0.0 0.0 0.00 0.00 0.00 92 1014.0
20260903084209 71 126 0.0 0.0 0.00 0.00 0.00 92 1014.0
20260903083709 71 170 0.0 0.0 0.00 0.00 0.00 92 1014.0
20260903083210 71 148 0.0 0.0 0.00 0.00 0.00 92 1014.0
20260903082710 71 125 0.0 0.0 0.00 0.00 0.00 92 1014.0
20260903082209 71 212 0.0 2.0 0.00 0.00 0.00 92 1014.0
20260903081709 71 130 0.0 4.0 0.00 0.00 0.00 92 1014.0
20260903081210 71 129 1.0 2.0 0.00 0.00 0.00 92 1014.0
20260903080709 71 214 0.0 0.0 0.00 0.00 0.00 92 1014.0
20260903080210 72 156 2.0 3.0 0.00 0.00 0.00 92 1014.0
20260903075709 72 117 2.0 2.0 0.00 0.00 0.00 92 1014.0
20260903075209 72 280 0.0 0.0 0.00 0.00 0.00 92 1014.0
20260903074709 72 354 0.0 2.0 0.00 0.00 0.00 92 1014.0
20260903074209 72 265 5.0 5.0 0.00 0.00 0.00 92 1014.0
20260903073709 72 340 5.0 6.0 0.00 0.00 0.00 92 1014.0
20260903073210 72 237 1.0 4.0 0.00 0.00 0.00 92 1014.0
20260903072715 72 131 0.0 5.0 0.00 0.00 0.00 92 1014.0
20260903072209 71 139 5.0 5.0 0.00 0.00 0.00 92 1014.0
20260903071710 71 222 1.0 5.0 0.00 0.00 0.00 92 1014.0
20260903071210 71 246 2.0 5.0 0.00 0.00 0.00 92 1013.0
20260903070709 71 183 0.0 6.0 0.00 0.00 0.00 92 1014.0
20260903070210 71 153 0.0 4.0 0.00 0.00 0.00 92 1014.0
20260903065709 71 356 2.0 4.0 0.00 0.00 0.00 92 1014.0
20260903065209 71 16 1.0 6.0 0.00 0.00 0.00 92 1014.0
20260903064709 71 227 1.0 2.0 0.00 0.00 0.00 92 1014.0
20260903064209 71 155 3.0 4.0 0.00 0.00 0.00 92 1014.0
20260903063710 71 165 7.0 7.0 0.00 0.00 0.00 92 1014.0
20260903063209 71 296 3.0 4.0 0.00 0.00 0.00 92 1014.0
20260903062709 72 216 4.0 4.0 0.00 0.00 0.00 92 1014.0
20260903062210 72 138 0.0 4.0 0.00 0.00 0.00 92 1014.0
20260903061709 72 232 1.0 6.0 0.00 0.00 0.00 92 1014.0
20260903061209 72 296 5.0 6.0 0.00 0.00 0.00 92 1014.0
20260903060709 72 1 2.0 6.0 0.00 0.00 0.00 91 1014.0
20260903060210 72 170 4.0 7.0 0.00 0.00 0.00 91 1014.0
20260903055709 72 103 2.0 3.0 0.00 0.00 0.00 90 1014.0
20260903055211 71 110 4.0 8.0 0.00 0.00 0.00 90 1014.0
20260903054709 71 178 1.0 5.0 0.00 0.00 0.00 90 1014.0
20260903054209 72 153 3.0 8.0 0.00 0.00 0.00 90 1014.0
20260903053709 72 156 7.0 7.0 0.00 0.00 0.00 90 1014.0
20260903053210 71 197 2.0 8.0 0.00 0.00 0.00 90 1014.0
20260903052709 71 107 4.0 6.0 0.00 0.00 0.00 91 1014.0
20260903052209 72 144 3.0 7.0 0.00 0.00 0.00 92 1014.0
20260903051710 71 180 6.0 7.0 0.00 0.00 0.00 92 1014.0
20260903051209 72 232 4.0 7.0 0.00 0.00 0.00 93 1014.0
20260903050709 72 311 0.0 8.0 0.00 0.00 0.00 93 1014.0
20260903050210 72 193 2.0 6.0 0.00 0.00 0.00 93 1014.0
20260903045710 72 241 3.0 6.0 0.00 0.00 0.00 92 1014.0
20260903045211 72 192 3.0 3.0 0.00 0.00 0.00 92 1014.0
20260903044713 71 358 0.0 5.0 0.00 0.00 0.00 92 1014.0
20260903044209 72 260 3.0 8.0 0.00 0.00 0.00 93 1014.0
20260903043710 71 162 7.0 7.0 0.00 0.00 0.00 93 1014.0
20260903043210 71 244 6.0 6.0 0.00 0.00 0.00 92 1014.0
20260903042709 71 141 4.0 4.0 0.00 0.00 0.00 92 1014.0
20260903042209 71 237 6.0 6.0 0.00 0.00 0.00 92 1014.0
20260903041710 71 74 4.0 6.0 0.00 0.00 0.00 92 1014.0
20260903041209 71 93 4.0 7.0 0.00 0.00 0.00 92 1014.0
20260903040710 71 225 1.0 2.0 0.00 0.00 0.00 93 1014.0
20260903040211 71 240 4.0 5.0 0.00 0.00 0.24 93 1013.0
20260903035711 70 139 2.0 3.0 0.00 0.00 0.24 93 1013.0
20260903035209 70 215 2.0 4.0 0.00 0.00 0.24 93 1013.0
20260903034709 70 182 3.0 6.0 0.00 0.00 0.24 93 1013.0
20260903034211 70 156 2.0 5.0 0.00 0.00 0.24 93 1013.0
20260903033710 70 223 1.0 4.0 0.00 0.00 0.24 94 1013.0
20260903033209 70 197 2.0 4.0 0.00 0.00 0.24 95 1013.0
20260903032710 70 203 0.0 4.0 0.00 0.00 0.24 95 1014.0
20260903032211 70 123 0.0 4.0 0.00 0.00 0.24 95 1013.0
20260903031710 70 179 0.0 5.0 0.00 0.00 0.24 96 1014.0
20260903031209 70 109 0.0 0.0 0.00 0.00 0.24 96 1014.0
20260903030710 70 205 0.0 2.0 0.00 0.00 0.24 96 1014.0
20260903030209 70 282 0.0 0.0 0.00 0.00 0.24 96 1014.0
20260903025709 70 147 0.0 0.0 0.00 0.00 0.24 96 1014.0
20260903025209 70 208 0.0 3.0 0.00 0.00 0.24 96 1015.0
20260903024710 70 113 0.0 3.0 0.00 0.00 0.24 96 1014.0
20260903024209 70 170 0.0 3.0 0.00 0.00 0.24 96 1014.0
20260903023709 70 77 0.0 0.0 0.01 0.00 0.24 96 1014.0
20260903023209 70 139 0.0 0.0 0.01 0.00 0.24 96 1015.0
20260903022710 70 108 0.0 0.0 0.01 0.00 0.24 96 1015.0
20260903021803 70 121 0.0 1.0 0.04 0.00 0.24 96 1015.0
20260903021210 70 53 0.0 0.0 0.04 0.00 0.24 96 1015.0
20260903020710 70 166 0.0 0.0 0.04 0.00 0.24 96 1015.0
20260903020215 70 251 0.0 2.0 0.04 0.00 0.24 96 1015.0
20260903015709 70 188 0.0 1.0 0.04 0.00 0.24 96 1015.0
20260903015209 70 157 0.0 0.0 0.04 0.00 0.24 96 1015.0
20260903014709 71 103 0.0 2.0 0.04 0.00 0.24 96 1015.0
20260903014210 71 187 0.0 0.0 0.04 0.00 0.24 96 1014.0
20260903013709 71 113 0.0 0.0 0.03 0.00 0.23 96 1015.0
20260903013209 70 143 0.0 4.0 0.03 0.00 0.23 96 1015.0
20260903012710 70 203 0.0 2.0 0.03 0.00 0.23 96 1015.0
20260903012209 71 87 0.0 1.0 0.01 0.00 0.20 96 1015.0
20260903011709 70 119 0.0 0.0 0.01 0.00 0.20 96 1014.0
20260903011209 71 196 1.0 2.0 0.02 0.00 0.20 96 1014.0
20260903010709 70 170 1.0 4.0 0.02 0.00 0.20 96 1014.0
20260903010211 70 188 0.0 3.0 0.03 0.00 0.20 96 1014.0
20260903005711 71 147 0.0 0.0 0.04 0.00 0.20 96 1014.0
20260903005211 70 111 0.0 0.0 0.05 0.00 0.20 96 1014.0
20260903004709 71 130 0.0 0.0 0.06 0.00 0.20 96 1014.0
20260903004209 71 72 0.0 0.0 0.07 0.00 0.20 96 1013.0
20260903003710 71 118 0.0 0.0 0.07 0.00 0.20 96 1013.0
20260903003211 71 133 0.0 0.0 0.08 0.00 0.20 96 1013.0
20260903002710 71 121 0.0 0.0 0.08 0.00 0.20 95 1013.0
20260903002210 71 141 0.0 0.0 0.07 0.00 0.19 95 1013.0
20260903001710 70 113 0.0 0.0 0.07 0.00 0.19 95 1013.0
20260903001214 71 13 0.0 4.0 0.06 0.00 0.18 95 1013.0
20260903000709 71 337 5.0 6.0 0.07 0.00 0.18 95 1013.0
20260903000211 71 284 5.0 7.0 0.10 0.00 0.17 94 1013.0
20260902235709 71 24 6.0 6.0 0.15 0.00 0.16 94 1013.0
20260902235209 71 348 4.0 7.0 0.14 0.00 0.15 93 1014.0
20260902234709 71 22 4.0 9.0 0.13 0.00 0.14 93 1014.0
20260902234209 72 360 2.0 6.0 0.12 0.00 0.13 92 1014.0